Tracking 17884 objects as of 4-December-2016
HD Live streaming from Space Station
objects crossing your sky now

THORAD AGENA D DEB

Track THORAD AGENA D DEB now!
10-day predictions


NORAD ID: 4177
Int'l Code: 1969-082AV
Perigee: 855.1 km
Apogee: 1,028.6 km
Inclination: 70.1 °
Period: 103.7 minutes
Semi major axis: 7312 km
RCS: 0.0743 m2 (small)
Launch date: September 30, 1969
Source: United States (US)
Launch site: AIR FORCE WESTERN TEST RANGE (AFWTR)

Note: This is SATELLITE DEBRIS
Your satellite tracking list
Your tracking list is empty





NASA's NSSDC Master Catalog

Two Line Element Set (TLE):
1 04177U 69082AV  16339.44822225  .00000344  00000-0  31253-3 0  9993
2 04177  70.0717 358.3552 0118636 208.5518 150.9054 13.88265857372951
Source of the keplerian elements: AFSPC